[[{"header":{"parameterUnit":"m.s-1","parameterCategory":1,"la1":30.2991,"la2":30.254,"lo1":-89.0895,"lo2":-89.0444,"dy":0.0017,"dx":0.0017,"nx":28,"ny":28,"refTime":"2024-03-10T03:00:00:Z","depth":0,"parameterNumber":2,"parameterNumberName":"U-component_of_WINDS"},"data":[0,0,0,0,0,0,0,0,0,0,0,0,0,0,0,0,0,0,0,0,0,0,0,0,0,0,0,0,0,0,0,0,0,0,0,0,0,0,0,0,0,0,0,0,0,0,0,0,0,0,0,0,0,0,0,0,0,0,0.4767,0.4767,0,0.4757,0.4757,0.4757,0.4753,0.4754,0.4754,0.4754,0.4742,0.4742,0.4741,0,0,0,0,0,0,0,0,0,0,0,0,0,0.4784,0.4784,0.4767,0.4767,0.4767,0.4757,0.4757,0.4757,0.4753,0.4754,0.4754,0.4754,0.4742,0.4742,0.4741,0,0,0,0,0,0,0,0,0,0,0,0,0,0.4775,0.4783,0.4767,0.4764,0.4764,0.4757,0.4757,0.4757,0.4753,0.4754,0.4754,0.4754,0.4742,0.4742,0.4741,0.4737,0,0,0.474,0.4739,0,0,0,0,0,0,0,0,0.4776,0.4775,0.4765,0.4764,0.4764,0.4757,0.4758,0.475,0.4753,0.4757,0.4754,0.4754,0.4747,0.4746,0.4744,0.4736,0.4735,0.474,0.4739,0.4739,0.4739,0,0,0,0,0,0,0,0.4776,0.4775,0.4763,0.4765,0.4764,0.4763,0.4762,0.4757,0.4752,0.4757,0.4757,0.4756,0.4747,0.4744,0.4743,0.4735,0.474,0.4739,0.4739,0.4739,0.4724,0.4724,0,0,0,0,0,0,0.4778,0.4776,0.4764,0.4763,0.477,0.4763,0.4762,0.4759,0.4752,0.4751,0.4756,0.4756,0.4745,0.4744,0.4743,0.4737,0.4739,0.4739,0.4738,0.4724,0.4724,0.4724,0,0,0,0,0,0,0.4778,0.4777,0.4764,0.4769,0.4768,0.4763,0.4759,0.4759,0.4756,0.4751,0.475,0.4754,0.4745,0.4744,0.4738,0.4737,0.4738,0.4738,0.4724,0.4724,0.4724,0.4726,0,0,0,0,0,0,0.4778,0.4777,0.4775,0.4769,0.4767,0.476,0.4759,0.4758,0.4756,0.4755,0.4749,0.4748,0.4745,0.4739,0.4738,0.4736,0.4737,0.4724,0.4724,0.4724,0.4726,0.4726,0.4726,0,0,0,0,0,0.4779,0.4775,0.4775,0.4773,0.4765,0.4759,0.4758,0.4755,0.4755,0.4754,0.475,0.4748,0.4737,0.4739,0.4737,0.4735,0.4724,0.4724,0.4724,0.4726,0.4726,0.4726,0,0,0,0,0,0,0.478,0.4775,0.4774,0.4768,0.4765,0.4759,0.4756,0.4755,0.4751,0.4751,0.4747,0.4745,0.474,0.4737,0.4739,0.4731,0.4731,0.473,0.4733,0.4733,0.4733,0.4733,0.4737,0,0,0,0,0,0.478,0.4777,0.4772,0.4767,0.4765,0.4761,0.4759,0.4757,0.4752,0.4751,0.4747,0.4742,0.4738,0.4735,0.4731,0.4726,0.4724,0.4724,0.4724,0.4724,0.4723,0.472,0.472,0.4723,0.4723,0.4723,0,0,0.4779,0.4776,0.4774,0.4767,0.4764,0.476,0.476,0.4756,0.4753,0.475,0.4745,0.4742,0.4737,0.4732,0.4729,0.4729,0.4722,0.4723,0.4723,0.4723,0.472,0.472,0.472,0.4723,0.4723,0.4723,0,0,0.4776,0.4773,0.4769,0.4766,0.4762,0.4759,0.4758,0.4753,0.4751,0.4746,0.4744,0.4741,0.4733,0.473,0.4727,0.4724,0.4722,0.4723,0.4722,0.472,0.4719,0.4719,0.4718,0.4718,0.4722,0.4722,0.4722,0,0.4776,0.477,0.4767,0.4764,0.4761,0.4759,0.4755,0.4752,0.4746,0.4745,0.4745,0.4736,0.4732,0.4727,0.4726,0.4724,0.4723,0.4723,0.472,0.4719,0.4719,0.4718,0.4718,0.4722,0.4722,0.4722,0.4722,0,0.477,0.4766,0.4763,0.4758,0.4756,0.4752,0.4749,0.4746,0.4745,0.4742,0.4737,0.4733,0.4728,0.4727,0.4725,0.4721,0.4721,0.472,0.472,0.4719,0.4718,0.4717,0.4722,0.4722,0.4722,0.4722,0,0,0.4766,0.476,0.4759,0.4757,0.4753,0.475,0.4746,0.4742,0.474,0.4736,0.4733,0.4727,0.4727,0.4724,0.4722,0.472,0.4718,0.4719,0.4719,0.4719,0.4713,0.4714,0.4713,0.4717,0.4717,0.4717,0.4714,0,0.4762,0.4755,0.4754,0.4748,0.4745,0.4743,0.474,0.4737,0.4735,0.4732,0.4729,0.4725,0.4725,0.4723,0.4721,0.4718,0.4716,0.4719,0.4714,0.4714,0.4715,0.4712,0.4713,0.471,0.4713,0.4713,0.4713,0,0.4756,0.4753,0.4747,0.4744,0.4742,0.474,0.4736,0.4733,0.4729,0.4728,0.4725,0.4724,0.472,0.4721,0.4715,0.4717,0.4715,0.4713,0.4713,0.4712,0.4713,0.4711,0.4709,0.4709,0.4712,0.4712,0.4712,0,0.4754,0.4748,0.4744,0.4743,0.4739,0.4737,0.4735,0.4732,0.4729,0.4726,0.4725,0.4721,0.4719,0.4716,0.4713,0.4714,0.4709,0.4709,0.4707,0.4707,0.4706,0.4706,0.4703,0.4705,0.4705,0.4705,0.4705,0,0.475,0.4746,0.4744,0.4741,0.4738,0.4736,0.4732,0.473,0.4727,0.4724,0.4723,0.472,0.4717,0.4714,0.4712,0.4709,0.4708,0.4706,0.4706,0.4706,0.4707,0.4705,0.4705,0.4705,0.4705,0.4705,0.4705,0,0.4746,0.4744,0.474,0.4737,0.4736,0.4733,0.4731,0.4728,0.4727,0.4723,0.4722,0.4719,0.4716,0.4713,0.4708,0.4707,0.4703,0.4703,0.4704,0.4704,0.4703,0.4703,0.4698,0.4697,0.47,0.47,0.47,0,0.4743,0.4741,0.4738,0.4736,0.4734,0.4731,0.4729,0.4728,0.4725,0.4722,0.472,0.4717,0.4714,0.4708,0.4706,0.4702,0.4702,0.47,0.4701,0.4702,0.4702,0.4702,0.4701,0.47,0.47,0.47,0.47,0,0.4738,0.4738,0.4735,0.4732,0.473,0.4728,0.4725,0.4724,0.4722,0.472,0.4716,0.4714,0.471,0.4707,0.4703,0.4701,0.47,0.47,0.4699,0.47,0.4701,0.47,0.4704,0.47,0.47,0.47,0.47,0.47,0.4735,0.4733,0.4731,0.4728,0.4726,0.4724,0.4722,0.472,0.4718,0.4714,0.4714,0.471,0.4708,0.4703,0.4701,0.4698,0.4698,0.4698,0.4697,0.4697,0.4697,0.4702,0.4698,0.4698,0.4698,0.4698,0.4698,0,0.473,0.4729,0.4726,0.4723,0.4721,0.4721,0.4719,0.4717,0.4714,0.4712,0.471,0.4706,0.4703,0.4701,0.4698,0.4696,0.4696,0.4695,0.4695,0.4695,0.4697,0.4698,0.4696,0.4696,0.4696,0.4696,0.4696,0.4696,0.4727,0.4724,0.4723,0.4719,0.4718,0.4715,0.4714,0.4712,0.471,0.4707,0.4704,0.4703,0.4701,0.4698,0.4695,0.4695,0.4693,0.4693,0.4693,0.4695,0.4695,0.4695,0.4696,0.4693,0.4693,0.469,0.469,0.469]},{"header":{"parameterUnit":"m.s-1","parameterCategory":1,"la1":30.2991,"la2":30.254,"lo1":-89.0895,"lo2":-89.0444,"dy":0.0017,"dx":0.0017,"nx":28,"ny":28,"refTime":"2024-03-10T03:00:00:Z","depth":0,"parameterNumber":3,"parameterNumberName":"V-component_of_WINDS"},"data":[0,0,0,0,0,0,0,0,0,0,0,0,0,0,0,0,0,0,0,0,0,0,0,0,0,0,0,0,0,0,0,0,0,0,0,0,0,0,0,0,0,0,0,0,0,0,0,0,0,0,0,0,0,0,0,0,0,0,-4.3683,-4.3685,0,-4.3837,-4.3839,-4.3841,-4.3832,-4.383,-4.3827,-4.3825,-4.398,-4.3986,-4.3992,0,0,0,0,0,0,0,0,0,0,0,0,0,-4.3379,-4.3385,-4.3683,-4.3685,-4.3687,-4.3837,-4.3839,-4.3841,-4.3832,-4.3829,-4.3827,-4.3824,-4.3978,-4.3985,-4.3993,0,0,0,0,0,0,0,0,0,0,0,0,0,-4.352,-4.3387,-4.3683,-4.3701,-4.3704,-4.3836,-4.3839,-4.3842,-4.3833,-4.3829,-4.3826,-4.3823,-4.3976,-4.3985,-4.3994,-4.4118,0,0,-4.4022,-4.4026,0,0,0,0,0,0,0,0,-4.3512,-4.3531,-4.3696,-4.37,-4.3703,-4.3812,-4.3789,-4.3934,-4.3834,-4.3784,-4.3825,-4.3821,-4.3927,-4.394,-4.3976,-4.4125,-4.4132,-4.4023,-4.4029,-4.4033,-4.4035,0,0,0,0,0,0,0,-4.3502,-4.3525,-4.3744,-4.3698,-4.3703,-4.37,-4.3717,-4.3816,-4.3872,-4.3788,-4.3787,-4.3806,-4.3928,-4.3967,-4.3979,-4.4134,-4.4023,-4.4031,-4.4037,-4.404,-4.4394,-4.4397,0,0,0,0,0,0,-4.3489,-4.3516,-4.3739,-4.3748,-4.3598,-4.3709,-4.3727,-4.378,-4.3871,-4.3881,-4.3809,-4.3805,-4.3953,-4.3968,-4.3985,-4.4137,-4.4032,-4.4041,-4.4047,-4.439,-4.4395,-4.4399,0,0,0,0,0,0,-4.3482,-4.3509,-4.3733,-4.3633,-4.3661,-4.3717,-4.3777,-4.3785,-4.3824,-4.3887,-4.3896,-4.3838,-4.3951,-4.3972,-4.4085,-4.4142,-4.4045,-4.4054,-4.4385,-4.4391,-4.4397,-4.4441,0,0,0,0,0,0,-4.3474,-4.3507,-4.3555,-4.3634,-4.3666,-4.3831,-4.3781,-4.3791,-4.384,-4.3837,-4.3917,-4.3927,-4.395,-4.4071,-4.4094,-4.4153,-4.4061,-4.4381,-4.4388,-4.4395,-4.4435,-4.4448,-4.4459,0,0,0,0,0,-4.3463,-4.356,-4.3557,-4.3584,-4.3728,-4.3835,-4.3853,-4.3878,-4.3845,-4.3894,-4.3934,-4.3924,-4.4132,-4.4083,-4.4109,-4.4171,-4.4377,-4.4386,-4.4394,-4.443,-4.4445,-4.4459,0,0,0,0,0,0,-4.3485,-4.3571,-4.3568,-4.3694,-4.3757,-4.3833,-4.3895,-4.3894,-4.3967,-4.396,-4.3987,-4.4005,-4.412,-4.4157,-4.4101,-4.4297,-4.425,-4.4264,-4.4268,-4.4284,-4.4295,-4.4284,-4.4069,0,0,0,0,0,-4.3504,-4.3585,-4.3655,-4.3759,-4.3791,-4.3838,-4.3885,-4.3899,-4.3965,-4.3992,-4.404,-4.4104,-4.4184,-4.4236,-4.4312,-4.444,-4.4458,-4.4496,-4.4508,-4.4517,-4.4529,-4.4601,-4.4619,-4.4427,-4.4427,-4.4427,0,0,-4.3545,-4.3602,-4.3651,-4.3765,-4.3816,-4.3898,-4.386,-4.3949,-4.401,-4.4005,-4.4116,-4.4154,-4.4227,-4.4348,-4.4404,-4.4383,-4.4586,-4.4528,-4.4535,-4.4542,-4.4611,-4.4629,-4.4645,-4.4433,-4.4432,-4.4431,0,0,-4.3662,-4.3713,-4.3806,-4.3858,-4.3936,-4.3967,-4.3989,-4.4066,-4.4091,-4.4203,-4.4201,-4.4274,-4.4411,-4.4463,-4.4508,-4.4647,-4.4641,-4.4671,-4.4733,-4.4802,-4.4817,-4.4831,-4.4881,-4.4898,-4.4682,-4.4682,-4.4683,0,-4.3703,-4.3828,-4.3854,-4.3944,-4.3994,-4.3995,-4.4089,-4.4138,-4.4236,-4.4271,-4.4246,-4.4419,-4.4467,-4.4602,-4.4636,-4.4672,-4.4698,-4.4662,-4.4813,-4.4827,-4.484,-4.4888,-4.4907,-4.4686,-4.4685,-4.4685,-4.4685,0,-4.3874,-4.3961,-4.4027,-4.4124,-4.4182,-4.4273,-4.4313,-4.4368,-4.4377,-4.441,-4.4525,-4.4584,-4.4673,-4.4706,-4.4715,-4.4843,-4.4827,-4.4807,-4.4761,-4.4861,-4.4907,-4.4925,-4.469,-4.4689,-4.4688,-4.4687,0,0,-4.4008,-4.412,-4.4143,-4.4188,-4.4275,-4.4342,-4.4434,-4.4522,-4.457,-4.4638,-4.4716,-4.4832,-4.4815,-4.4865,-4.4881,-4.4941,-4.5049,-4.4914,-4.4917,-4.4938,-4.5193,-4.5208,-4.5229,-4.5045,-4.5049,-4.5052,-4.5187,0,-4.4134,-4.4298,-4.4325,-4.4469,-4.455,-4.4552,-4.4632,-4.4694,-4.4728,-4.4801,-4.4837,-4.492,-4.4891,-4.4922,-4.4982,-4.5023,-4.51,-4.5013,-4.5118,-4.5121,-4.51,-4.5252,-4.5268,-4.5393,-4.5205,-4.5208,-4.521,0,-4.4303,-4.4378,-4.453,-4.4607,-4.4642,-4.4714,-4.4798,-4.4868,-4.4938,-4.4958,-4.5016,-4.5024,-4.512,-4.507,-4.5201,-4.5142,-4.5186,-4.5213,-4.5218,-4.5229,-4.5172,-4.5268,-4.5433,-4.5452,-4.5239,-4.5236,-4.5234,0,-4.4386,-4.4524,-4.4634,-4.4672,-4.4764,-4.4815,-4.4856,-4.4923,-4.4975,-4.5048,-4.5082,-4.5165,-4.5211,-4.5274,-4.5305,-4.5266,-4.5435,-4.5387,-4.5454,-4.5454,-4.549,-4.5487,-4.5665,-4.5518,-4.5517,-4.5517,-4.5517,0,-4.4524,-4.4617,-4.4673,-4.474,-4.4845,-4.4875,-4.4977,-4.5016,-4.5076,-4.5151,-4.5158,-4.5228,-4.5264,-4.5339,-4.5363,-4.5469,-4.5489,-4.5508,-4.5513,-4.5508,-4.5505,-4.5537,-4.5529,-4.5522,-4.5521,-4.552,-4.5519,0,-4.4634,-4.4675,-4.4795,-4.4874,-4.4896,-4.4969,-4.5036,-4.5102,-4.5135,-4.523,-4.5254,-4.5307,-4.5396,-4.5433,-4.5542,-4.5558,-4.568,-4.5678,-4.5656,-4.5658,-4.5723,-4.5717,-4.5928,-4.5957,-4.579,-4.5792,-4.5793,0,-4.472,-4.4792,-4.4879,-4.4931,-4.4973,-4.5055,-4.5109,-4.5142,-4.5198,-4.5284,-4.5339,-4.5428,-4.5502,-4.5644,-4.5691,-4.5775,-4.5775,-4.5844,-4.5788,-4.578,-4.5777,-4.5773,-4.578,-4.5854,-4.5856,-4.5857,-4.5858,0,-4.4868,-4.4885,-4.4963,-4.5049,-4.5113,-4.5182,-4.5249,-4.529,-4.5333,-4.5395,-4.5487,-4.5544,-4.5656,-4.5745,-4.5832,-4.5873,-4.5873,-4.5875,-4.5895,-4.589,-4.5875,-4.5885,-4.5685,-4.587,-4.5869,-4.5868,-4.5867,-4.5867,-4.4968,-4.5033,-4.5105,-4.5192,-4.5247,-4.5309,-4.5375,-4.5418,-4.5496,-4.5591,-4.5605,-4.5704,-4.5773,-4.5889,-4.5934,-4.6011,-4.5994,-4.6023,-4.603,-4.6037,-4.6041,-4.5863,-4.6027,-4.6027,-4.6026,-4.6026,-4.6026,0,-4.5117,-4.5164,-4.5244,-4.5338,-4.5407,-4.5403,-4.5477,-4.5534,-4.5622,-4.5687,-4.5759,-4.5866,-4.5952,-4.6007,-4.6095,-4.6146,-4.6148,-4.6167,-4.6164,-4.6174,-4.6052,-4.6026,-4.6164,-4.6164,-4.6164,-4.6164,-4.6164,-4.6164,-4.5202,-4.5312,-4.5338,-4.5475,-4.5521,-4.5619,-4.5662,-4.572,-4.5772,-4.5891,-4.5964,-4.6,-4.6061,-4.6153,-4.6232,-4.6246,-4.6278,-4.6299,-4.6312,-4.6196,-4.6182,-4.6168,-4.6144,-4.6305,-4.6306,-4.6427,-4.6429,-4.6429]}]]